Weather History for KSTC - September, 2014

Change the Weather History Date:

Saturday, September 20, 2014

  Actual Average Record
Temperature  
Mean Temperature 67 °F 57 °F  
Max Temperature 78 °F 69 °F 91 °F (1908)
Min Temperature 55 °F 45 °F 26 °F (1991)
Degree Days  
Heating Degree Days 0 9  
Month to date heating degree days 112 118  
Since 1 July heating degree days 121 176  
Cooling Degree Days 2 1  
Month to date cooling degree days 22 30  
Year to date cooling degree days 576 459  
Growing Degree Days 17 (Base 50)    
Moisture  
Dew Point 56 °F    
Average Humidity 68    
Maximum Humidity 90    
Minimum Humidity 46    
Precipitation  
Precipitation 0.18 in 0.12 in 1.20 in (1921)
Month to date precipitation 3.91 2.45  
Year to date precipitation 33.28 22.03  
Snow  
Snow 0.00 in 0.00 in 0.00 in ()
Month to date snowfall 0.0 0.0  
Since 1 July snowfall 0.0 0.0  
Since 1 September snowfall 0.0 0.0  
Snow Depth 0.00 in    
Sea Level Pressure  
Sea Level Pressure 29.77 in    
Wind  
Wind Speed 13 mph (WNW)    
Max Wind Speed 37 mph    
Max Gust Speed 53 mph    
Visibility 8 miles    
Events Rain , Thunderstorm    
T = Trace of Precipitation, MM = Missing Value Source: NWS Daily Summary

Daily Weather History Graph

Daily Weather History Graph

Search for Another Location

Airport or City:

Trip Planner

Search our weather history database for the weather conditions in past years. The results will help you decide how hot, cold, wet, or windy it might be!

Date:

Astronomy

Sep. 20, 2014 Rise Set
Actual Time 7:00 AM CDT 7:17 PM CDT
Civil Twilight 6:31 AM CDT 7:47 PM CDT
Nautical Twilight 5:56 AM CDT 8:22 PM CDT
Astronomical Twilight 5:20 AM CDT 8:57 PM CDT
Moon 3:32 AM CDT (9/20) 5:28 PM CDT (9/20)
Length of Visible Light 13h 16m
Length of Day
12h 16m
Waning Crescent, 11% of the Moon is Illuminated
Sep 20
Waning Crescent
Sep 24
New
Oct 1
First Quarter
Oct 8
Full
Oct 15
Last Quarter

Hourly Weather History & Observations

Time (CDT) Temp. Dew Point Humidity Pressure Visibility Wind Dir Wind Speed Gust Speed Precip Events Conditions
12:16 AM 59.0 °F 57.0 °F 93% 29.66 in 1.0 mi South 8.1 mph - N/A   Mist
12:26 AM 60.1 °F 57.9 °F 93% 29.66 in 0.8 mi SSE 6.9 mph - N/A   Mist
12:30 AM 61.0 °F 59.0 °F 93% 29.66 in 1.2 mi SSE 6.9 mph - N/A   Partly Cloudy
12:34 AM 62.1 °F 59.0 °F 90% 29.66 in 3.0 mi South 3.5 mph - N/A   Clear
12:53 AM 62.1 °F 59.0 °F 90% 29.67 in 4.0 mi SSW 3.5 mph - N/A   Clear
1:53 AM 66.0 °F 63.0 °F 90% 29.68 in 10.0 mi WSW 5.8 mph - N/A   Clear
2:53 AM 66.9 °F 61.0 °F 81% 29.69 in 10.0 mi West 9.2 mph - N/A   Clear
3:53 AM 66.0 °F 59.0 °F 78% 29.69 in 10.0 mi West 9.2 mph - N/A   Clear
4:53 AM 64.0 °F 57.9 °F 80% 29.72 in 10.0 mi West 9.2 mph - N/A   Clear
5:53 AM 62.1 °F 57.0 °F 84% 29.76 in 10.0 mi WNW 16.1 mph 23.0 mph N/A   Partly Cloudy
6:05 AM 63.0 °F 57.9 °F 84% 29.75 in 10.0 mi NW 13.8 mph 26.5 mph N/A   Mostly Cloudy
6:41 AM 62.1 °F 57.0 °F 84% 29.76 in 9.0 mi WNW 10.4 mph - N/A   Scattered Clouds
6:53 AM 60.1 °F 57.0 °F 90% 29.78 in 8.0 mi WNW 8.1 mph - N/A   Clear
7:53 AM 60.1 °F 55.9 °F 86% 29.80 in 5.0 mi WNW 4.6 mph - N/A   Clear
8:53 AM 64.0 °F 57.9 °F 80% 29.81 in 10.0 mi WNW 15.0 mph - N/A   Clear
9:53 AM 66.0 °F 57.0 °F 73% 29.83 in 10.0 mi WNW 16.1 mph - N/A   Clear
10:53 AM 69.1 °F 55.9 °F 63% 29.83 in 10.0 mi NW 11.5 mph - N/A   Clear
11:53 AM 72.0 °F 55.9 °F 57% 29.83 in 10.0 mi NW 10.4 mph - N/A   Clear
12:53 PM 73.9 °F 55.9 °F 53% 29.82 in 10.0 mi NW 12.7 mph - N/A   Clear
1:53 PM 75.0 °F 55.0 °F 50% 29.79 in 10.0 mi West 12.7 mph - N/A   Partly Cloudy
2:53 PM 75.9 °F 54.0 °F 46% 29.76 in 10.0 mi WNW 13.8 mph - N/A   Partly Cloudy
3:53 PM 73.9 °F 54.0 °F 50% 29.76 in 10.0 mi West 8.1 mph - N/A   Scattered Clouds
4:40 PM 69.1 °F 57.0 °F 65% 29.78 in 5.0 mi West 13.8 mph - 0.01 in Rain , Thunderstorm Rain
4:46 PM 68.0 °F 57.9 °F 70% 29.80 in 2.5 mi WNW 24.2 mph 32.2 mph 0.04 in Rain , Thunderstorm Thunderstorms and Rain
4:53 PM 62.1 °F 55.9 °F 80% 29.82 in 1.2 mi WNW 24.2 mph 52.9 mph 0.10 in Rain , Thunderstorm Heavy Thunderstorms and Rain
4:59 PM 62.1 °F 55.9 °F 80% 29.80 in 2.0 mi West 16.1 mph 34.5 mph 0.01 in Rain Rain
5:16 PM 61.0 °F 55.9 °F 83% 29.77 in 4.0 mi West 5.8 mph - 0.08 in Rain Light Rain
5:53 PM 63.0 °F 57.0 °F 81% 29.81 in 10.0 mi WNW 12.7 mph - 0.08 in   Partly Cloudy
6:53 PM 63.0 °F 55.0 °F 75% 29.82 in 10.0 mi WNW 20.7 mph 27.6 mph N/A   Scattered Clouds
7:53 PM 60.1 °F 48.9 °F 67% 29.84 in 10.0 mi NW 18.4 mph - N/A   Clear
8:53 PM 59.0 °F 48.9 °F 69% 29.86 in 10.0 mi WNW 10.4 mph - N/A   Clear
9:53 PM 59.0 °F 50.0 °F 72% 29.86 in 10.0 mi WNW 13.8 mph - N/A   Partly Cloudy
10:53 PM 59.0 °F 48.9 °F 69% 29.88 in 10.0 mi WNW 16.1 mph - N/A   Scattered Clouds